Time,TemperatureF,DewpointF,PressureIn,WindDirection,WindDirectionDegrees,WindSpeedMPH,WindSpeedGustMPH,Humidity,HourlyPrecipIn,Conditions,Clouds,dailyrainin,SolarRadiationWatts/m^2,SoftwareType,DateUTC
2013-04-20 00:00:00,34.7,25.6,30.17,NW,312,1.0,12.0,69,0.00,,OVC065,0.05,0.00,VWS V14.01,2013-04-20 05:00:00,
2013-04-20 00:06:00,35.0,25.5,30.17,West,281,6.0,8.0,68,0.00,,SCT055,0.00,0.00,VWS V14.01,2013-04-20 05:06:00,
2013-04-20 00:11:00,35.0,25.2,30.18,WSW,238,9.0,9.0,67,0.00,,SCT055,0.00,0.00,VWS V14.01,2013-04-20 05:11:00,
2013-04-20 00:16:00,35.0,24.8,30.18,WNW,286,3.0,9.0,66,0.00,,SCT055,0.00,0.00,VWS V14.01,2013-04-20 05:16:00,
2013-04-20 00:21:00,35.0,25.2,30.18,West,262,5.0,6.0,67,0.00,,SCT055,0.00,0.00,VWS V14.01,2013-04-20 05:21:00,
2013-04-20 00:26:00,34.9,25.1,30.18,West,263,3.0,6.0,67,0.00,,SCT055,0.00,0.00,VWS V14.01,2013-04-20 05:26:00,
2013-04-20 00:31:00,34.7,25.2,30.18,West,263,3.0,5.0,68,0.00,,SCT055,0.00,0.00,VWS V14.01,2013-04-20 05:31:00,
2013-04-20 00:37:00,34.6,25.1,30.18,West,273,4.0,6.0,68,0.00,,SCT055,0.00,0.00,VWS V14.01,2013-04-20 05:37:00,
2013-04-20 00:42:00,34.4,25.0,30.19,WNW,293,4.0,10.0,68,0.00,,SCT055,0.00,0.00,VWS V14.01,2013-04-20 05:42:00,
2013-04-20 00:47:00,34.4,25.0,30.19,WSW,250,4.0,8.0,68,0.00,,SCT055,0.00,0.00,VWS V14.01,2013-04-20 05:47:00,
2013-04-20 00:52:00,34.4,24.6,30.19,West,271,2.0,4.0,67,0.00,,SCT055,0.00,0.00,VWS V14.01,2013-04-20 05:52:00,
2013-04-20 00:57:00,34.3,24.9,30.19,WNW,288,2.0,3.0,68,0.00,,SCT055,0.00,0.00,VWS V14.01,2013-04-20 05:57:00,
2013-04-20 01:02:00,34.3,24.9,30.19,NW,317,7.0,8.0,68,0.00,,BKN050,0.00,0.00,VWS V14.01,2013-04-20 06:02:00,
2013-04-20 01:07:00,34.1,24.7,30.19,WSW,250,1.0,3.0,68,0.00,,BKN050,0.00,0.00,VWS V14.01,2013-04-20 06:07:00,
2013-04-20 01:12:00,34.1,24.7,30.19,WSW,254,2.0,4.0,68,0.00,,BKN050,0.00,0.00,VWS V14.01,2013-04-20 06:12:00,
2013-04-20 01:17:00,34.0,24.9,30.20,West,271,3.0,7.0,69,0.00,,BKN050,0.00,0.00,VWS V14.01,2013-04-20 06:17:00,
2013-04-20 01:23:00,33.8,24.7,30.20,WNW,300,6.0,7.0,69,0.00,,BKN050,0.00,0.00,VWS V14.01,2013-04-20 06:23:00,
2013-04-20 01:28:00,33.8,24.7,30.20,West,277,4.0,4.0,69,0.00,,BKN050,0.00,0.00,VWS V14.01,2013-04-20 06:28:00,
2013-04-20 01:33:00,33.7,24.6,30.20,WNW,295,4.0,4.0,69,0.00,,BKN050,0.00,0.00,VWS V14.01,2013-04-20 06:33:00,
2013-04-20 01:38:00,33.7,24.6,30.20,WNW,288,2.0,6.0,69,0.00,,BKN050,0.00,0.00,VWS V14.01,2013-04-20 06:38:00,
2013-04-20 01:43:00,33.5,24.4,30.20,West,279,1.0,3.0,69,0.00,,BKN050,0.00,0.00,VWS V14.01,2013-04-20 06:43:00,
2013-04-20 01:48:00,33.4,24.7,30.20,West,271,1.0,3.0,70,0.00,,BKN050,0.00,0.00,VWS V14.01,2013-04-20 06:48:00,
2013-04-20 01:53:00,33.4,24.7,30.20,West,265,2.0,3.0,70,0.00,,BKN050,0.00,0.00,VWS V14.01,2013-04-20 06:53:00,
2013-04-20 01:58:00,33.4,24.7,30.19,West,265,7.0,7.0,70,0.00,,BKN050,0.00,0.00,VWS V14.01,2013-04-20 06:58:00,
2013-04-20 02:03:00,33.2,24.5,30.20,West,273,0.0,4.0,70,0.00,,CLR,0.00,0.00,VWS V14.01,2013-04-20 07:03:00,
2013-04-20 02:08:00,33.2,24.5,30.20,West,267,4.0,7.0,70,0.00,,CLR,0.00,0.00,VWS V14.01,2013-04-20 07:08:00,
2013-04-20 02:13:00,33.2,24.5,30.21,WSW,246,4.0,9.0,70,0.00,,CLR,0.00,0.00,VWS V14.01,2013-04-20 07:13:00,
2013-04-20 02:18:00,33.2,24.5,30.21,WSW,248,0.0,1.0,70,0.00,,CLR,0.00,0.00,VWS V14.01,2013-04-20 07:18:00,
2013-04-20 02:23:00,32.9,24.5,30.21,WSW,248,3.0,4.0,71,0.00,,CLR,0.00,0.00,VWS V14.01,2013-04-20 07:23:00,
2013-04-20 02:28:00,32.8,24.8,30.21,WSW,251,4.0,5.0,72,0.00,,CLR,0.00,0.00,VWS V14.01,2013-04-20 07:28:00,
2013-04-20 02:34:00,32.7,25.0,30.21,WSW,254,3.0,4.0,73,0.00,,CLR,0.00,0.00,VWS V14.01,2013-04-20 07:34:00,
2013-04-20 02:39:00,32.7,25.0,30.21,WSW,258,3.0,6.0,73,0.00,,CLR,0.00,0.00,VWS V14.01,2013-04-20 07:39:00,
2013-04-20 02:44:00,32.7,25.0,30.21,West,267,4.0,6.0,73,0.00,,CLR,0.00,0.00,VWS V14.01,2013-04-20 07:44:00,
2013-04-20 02:49:00,32.7,25.0,30.22,West,266,0.0,2.0,73,0.00,,CLR,0.00,0.00,VWS V14.01,2013-04-20 07:49:00,
2013-04-20 02:55:00,32.5,24.8,30.22,West,265,0.0,5.0,73,0.00,,CLR,0.00,0.00,VWS V14.01,2013-04-20 07:55:00,
2013-04-20 03:01:00,32.5,24.8,30.22,West,262,2.0,4.0,73,0.00,,CLR,0.00,0.00,VWS V14.01,2013-04-20 08:01:00,
2013-04-20 03:06:00,32.4,24.7,30.22,WSW,250,5.0,5.0,73,0.00,,CLR,0.00,0.00,VWS V14.01,2013-04-20 08:06:00,
2013-04-20 03:11:00,32.5,24.8,30.22,WNW,291,3.0,4.0,73,0.00,,CLR,0.00,0.00,VWS V14.01,2013-04-20 08:11:00,
2013-04-20 03:16:00,32.5,24.5,30.23,West,276,3.0,7.0,72,0.00,,CLR,0.00,0.00,VWS V14.01,2013-04-20 08:16:00,
2013-04-20 03:21:00,32.5,24.8,30.23,West,275,2.0,6.0,73,0.00,,CLR,0.00,0.00,VWS V14.01,2013-04-20 08:21:00,
2013-04-20 03:26:00,32.4,24.7,30.23,West,274,2.0,5.0,73,0.00,,CLR,0.00,0.00,VWS V14.01,2013-04-20 08:26:00,
2013-04-20 03:31:00,32.2,24.5,30.23,West,273,1.0,1.0,73,0.00,,CLR,0.00,0.00,VWS V14.01,2013-04-20 08:31:00,
2013-04-20 03:36:00,32.1,24.8,30.23,West,273,2.0,2.0,74,0.00,,CLR,0.00,0.00,VWS V14.01,2013-04-20 08:36:00,
2013-04-20 03:41:00,32.1,24.8,30.24,West,267,1.0,6.0,74,0.00,,CLR,0.00,0.00,VWS V14.01,2013-04-20 08:41:00,
2013-04-20 03:46:00,31.9,24.9,30.24,West,267,0.0,1.0,75,0.00,,CLR,0.00,0.00,VWS V14.01,2013-04-20 08:46:00,
2013-04-20 03:51:00,31.8,24.8,30.24,West,267,0.0,0.0,75,0.00,,CLR,0.00,0.00,VWS V14.01,2013-04-20 08:51:00,
2013-04-20 03:56:00,31.6,24.9,30.25,West,267,2.0,4.0,76,0.00,,CLR,0.00,0.00,VWS V14.01,2013-04-20 08:56:00,
2013-04-20 04:01:00,31.6,24.9,30.25,West,267,3.0,5.0,76,0.00,,CLR,0.00,0.00,VWS V14.01,2013-04-20 09:01:00,
2013-04-20 04:06:00,31.6,24.9,30.25,West,267,0.0,4.0,76,0.00,,CLR,0.00,0.00,VWS V14.01,2013-04-20 09:06:00,
2013-04-20 04:11:00,31.6,24.9,30.25,West,267,2.0,4.0,76,0.00,,CLR,0.00,0.00,VWS V14.01,2013-04-20 09:11:00,
2013-04-20 04:16:00,31.6,24.9,30.25,West,267,1.0,2.0,76,0.00,,CLR,0.00,0.00,VWS V14.01,2013-04-20 09:16:00,
2013-04-20 04:21:00,31.5,25.1,30.25,West,267,0.0,4.0,77,0.00,,CLR,0.00,0.00,VWS V14.01,2013-04-20 09:21:00,
2013-04-20 04:27:00,31.3,24.9,30.26,West,267,0.0,0.0,77,0.00,,CLR,0.00,0.00,VWS V14.01,2013-04-20 09:27:00,
2013-04-20 04:32:00,31.2,24.8,30.26,West,265,1.0,3.0,77,0.00,,CLR,0.00,0.00,VWS V14.01,2013-04-20 09:32:00,
2013-04-20 04:37:00,31.0,25.0,30.26,West,265,0.0,2.0,78,0.00,,CLR,0.00,0.00,VWS V14.01,2013-04-20 09:37:00,
2013-04-20 04:42:00,30.9,24.9,30.26,West,265,2.0,3.0,78,0.00,,CLR,0.00,0.00,VWS V14.01,2013-04-20 09:42:00,
2013-04-20 04:47:00,30.9,25.2,30.26,West,265,1.0,2.0,79,0.00,,CLR,0.00,0.00,VWS V14.01,2013-04-20 09:47:00,
2013-04-20 04:52:00,30.7,25.0,30.27,West,265,0.0,1.0,79,0.00,,CLR,0.00,0.00,VWS V14.01,2013-04-20 09:52:00,
2013-04-20 04:57:00,30.7,25.0,30.27,West,265,1.0,3.0,79,0.00,,CLR,0.00,0.00,VWS V14.01,2013-04-20 09:57:00,
2013-04-20 05:02:00,30.6,25.2,30.27,West,265,0.0,2.0,80,0.00,,CLR,0.00,0.00,VWS V14.01,2013-04-20 10:02:00,
2013-04-20 05:07:00,30.4,25.0,30.27,West,265,1.0,1.0,80,0.00,,CLR,0.00,0.00,VWS V14.01,2013-04-20 10:07:00,
2013-04-20 05:12:00,30.4,25.0,30.28,West,265,0.0,0.0,80,0.00,,CLR,0.00,0.00,VWS V14.01,2013-04-20 10:12:00,
2013-04-20 05:17:00,30.3,25.2,30.28,West,265,2.0,3.0,81,0.00,,CLR,0.00,0.00,VWS V14.01,2013-04-20 10:17:00,
2013-04-20 05:22:00,30.3,25.2,30.28,West,265,0.0,0.0,81,0.00,,CLR,0.00,0.00,VWS V14.01,2013-04-20 10:22:00,
2013-04-20 05:27:00,30.1,25.0,30.28,West,265,1.0,1.0,81,0.00,,CLR,0.00,0.00,VWS V14.01,2013-04-20 10:27:00,
2013-04-20 05:32:00,30.0,25.2,30.29,West,265,0.0,1.0,82,0.00,,CLR,0.00,0.00,VWS V14.01,2013-04-20 10:32:00,
2013-04-20 05:37:00,30.0,25.2,30.29,West,265,0.0,2.0,82,0.00,,CLR,0.00,0.00,VWS V14.01,2013-04-20 10:37:00,
2013-04-20 05:42:00,30.1,25.3,30.30,West,265,0.0,0.0,82,0.00,,CLR,0.00,0.00,VWS V14.01,2013-04-20 10:42:00,
2013-04-20 05:47:00,30.0,25.2,30.30,West,265,0.0,1.0,82,0.00,,CLR,0.00,0.00,VWS V14.01,2013-04-20 10:47:00,
2013-04-20 05:52:00,30.0,25.2,30.30,West,265,2.0,2.0,82,0.00,,CLR,0.00,0.00,VWS V14.01,2013-04-20 10:52:00,
2013-04-20 05:57:00,29.8,25.0,30.31,West,265,0.0,1.0,82,0.00,,CLR,0.00,0.00,VWS V14.01,2013-04-20 10:57:00,
2013-04-20 06:02:00,29.8,25.0,30.31,West,265,1.0,2.0,82,0.00,,CLR,0.00,0.00,VWS V14.01,2013-04-20 11:02:00,
2013-04-20 06:07:00,29.8,25.0,30.31,West,265,0.0,0.0,82,0.00,,CLR,0.00,0.00,VWS V14.01,2013-04-20 11:07:00,
2013-04-20 06:12:00,29.8,25.0,30.31,West,265,0.0,0.0,82,0.00,,CLR,0.00,5.00,VWS V14.01,2013-04-20 11:12:00,
2013-04-20 06:17:00,29.8,25.3,30.32,West,265,0.0,0.0,83,0.00,,CLR,0.00,9.00,VWS V14.01,2013-04-20 11:17:00,
2013-04-20 06:22:00,29.7,25.2,30.32,West,265,0.0,0.0,83,0.00,,CLR,0.00,12.00,VWS V14.01,2013-04-20 11:22:00,
2013-04-20 06:27:00,29.7,25.2,30.32,West,265,0.0,0.0,83,0.00,,CLR,0.00,14.00,VWS V14.01,2013-04-20 11:27:00,
2013-04-20 06:32:00,29.7,25.2,30.33,West,265,0.0,0.0,83,0.00,,CLR,0.00,21.00,VWS V14.01,2013-04-20 11:32:00,
2013-04-20 06:37:00,29.7,25.2,30.33,West,265,0.0,0.0,83,0.00,,CLR,0.00,26.00,VWS V14.01,2013-04-20 11:37:00,
2013-04-20 06:42:00,29.8,25.3,30.33,West,265,0.0,1.0,83,0.00,,CLR,0.00,53.00,VWS V14.01,2013-04-20 11:42:00,
2013-04-20 06:48:00,30.1,25.9,30.34,West,265,2.0,2.0,84,0.00,,CLR,0.00,72.00,VWS V14.01,2013-04-20 11:48:00,
2013-04-20 06:53:00,30.4,25.9,30.34,West,265,0.0,2.0,83,0.00,,CLR,0.00,88.00,VWS V14.01,2013-04-20 11:53:00,
2013-04-20 06:58:00,30.7,26.2,30.35,West,265,3.0,4.0,83,0.00,,CLR,0.00,104.00,VWS V14.01,2013-04-20 11:58:00,
2013-04-20 07:03:00,31.0,26.2,30.35,West,265,0.0,1.0,82,0.00,,CLR,0.00,121.00,VWS V14.01,2013-04-20 12:03:00,
2013-04-20 07:08:00,31.3,26.5,30.35,West,265,0.0,1.0,82,0.00,,CLR,0.00,134.00,VWS V14.01,2013-04-20 12:08:00,
2013-04-20 07:13:00,31.6,26.5,30.36,West,265,0.0,3.0,81,0.00,,CLR,0.00,149.00,VWS V14.01,2013-04-20 12:13:00,
2013-04-20 07:18:00,32.1,26.9,30.36,West,264,3.0,4.0,81,0.00,,CLR,0.00,165.00,VWS V14.01,2013-04-20 12:18:00,
2013-04-20 07:23:00,32.2,27.0,30.36,West,264,0.0,4.0,81,0.00,,CLR,0.00,181.00,VWS V14.01,2013-04-20 12:23:00,
2013-04-20 07:28:00,32.4,26.9,30.37,West,264,2.0,3.0,80,0.00,,CLR,0.00,199.00,VWS V14.01,2013-04-20 12:28:00,
2013-04-20 07:33:00,32.7,27.2,30.37,West,264,2.0,4.0,80,0.00,,CLR,0.00,216.00,VWS V14.01,2013-04-20 12:33:00,
2013-04-20 07:38:00,32.8,27.0,30.38,WNW,284,3.0,3.0,79,0.00,,CLR,0.00,234.00,VWS V14.01,2013-04-20 12:38:00,
2013-04-20 07:43:00,33.1,27.3,30.38,WNW,284,4.0,4.0,79,0.00,,CLR,0.00,250.00,VWS V14.01,2013-04-20 12:43:00,
2013-04-20 07:49:00,33.4,27.3,30.38,West,272,3.0,5.0,78,0.00,,CLR,0.00,274.00,VWS V14.01,2013-04-20 12:49:00,
2013-04-20 07:54:00,33.4,27.3,30.38,WNW,284,2.0,3.0,78,0.00,,CLR,0.00,288.00,VWS V14.01,2013-04-20 12:54:00,
2013-04-20 07:59:00,33.4,27.0,30.39,West,277,2.0,4.0,77,0.00,,CLR,0.00,308.00,VWS V14.01,2013-04-20 12:59:00,
2013-04-20 08:04:00,33.5,27.1,30.39,West,269,1.0,3.0,77,0.00,,CLR,0.00,325.00,VWS V14.01,2013-04-20 13:04:00,
2013-04-20 08:09:00,33.7,27.3,30.40,West,263,0.0,4.0,77,0.00,,CLR,0.00,339.00,VWS V14.01,2013-04-20 13:09:00,
2013-04-20 08:14:00,33.8,27.4,30.40,West,269,1.0,6.0,77,0.00,,CLR,0.00,360.00,VWS V14.01,2013-04-20 13:14:00,
2013-04-20 08:19:00,34.0,27.6,30.40,West,279,7.0,7.0,77,0.00,,CLR,0.00,383.00,VWS V14.01,2013-04-20 13:19:00,
2013-04-20 08:24:00,34.3,27.9,30.41,West,279,1.0,5.0,77,0.00,,CLR,0.00,397.00,VWS V14.01,2013-04-20 13:24:00,
2013-04-20 08:29:00,34.4,27.6,30.41,West,279,3.0,5.0,76,0.00,,CLR,0.00,415.00,VWS V14.01,2013-04-20 13:29:00,
2013-04-20 08:35:00,34.6,27.8,30.42,West,273,3.0,7.0,76,0.00,,CLR,0.00,434.00,VWS V14.01,2013-04-20 13:35:00,
2013-04-20 08:40:00,34.7,28.2,30.42,West,273,4.0,5.0,77,0.00,,CLR,0.00,452.00,VWS V14.01,2013-04-20 13:40:00,
2013-04-20 08:45:00,34.9,28.1,30.42,WNW,296,3.0,5.0,76,0.00,,CLR,0.00,469.00,VWS V14.01,2013-04-20 13:45:00,
2013-04-20 08:50:00,35.0,28.2,30.42,NW,309,3.0,6.0,76,0.00,,CLR,0.00,490.00,VWS V14.01,2013-04-20 13:50:00,
2013-04-20 08:55:00,35.5,28.7,30.43,West,267,3.0,5.0,76,0.00,,CLR,0.00,510.00,VWS V14.01,2013-04-20 13:55:00,
2013-04-20 09:01:00,35.6,28.1,30.43,West,267,2.0,5.0,74,0.00,,CLR,0.00,527.00,VWS V14.01,2013-04-20 14:01:00,
2013-04-20 09:06:00,35.6,28.5,30.43,West,267,4.0,6.0,75,0.00,,CLR,0.00,540.00,VWS V14.01,2013-04-20 14:06:00,
2013-04-20 09:11:00,35.8,28.3,30.44,West,270,1.0,3.0,74,0.00,,CLR,0.00,564.00,VWS V14.01,2013-04-20 14:11:00,
2013-04-20 09:16:00,36.0,28.2,30.44,West,269,3.0,5.0,73,0.00,,CLR,0.00,589.00,VWS V14.01,2013-04-20 14:16:00,
2013-04-20 09:21:00,36.2,28.4,30.44,NW,315,0.0,2.0,73,0.00,,CLR,0.00,489.00,VWS V14.01,2013-04-20 14:21:00,
2013-04-20 09:27:00,36.2,28.4,30.44,NW,308,5.0,5.0,73,0.00,,CLR,0.00,671.00,VWS V14.01,2013-04-20 14:27:00,
2013-04-20 09:32:00,36.0,27.9,30.44,West,268,6.0,6.0,72,0.00,,CLR,0.00,650.00,VWS V14.01,2013-04-20 14:32:00,
2013-04-20 09:38:00,36.2,28.4,30.44,West,276,1.0,6.0,73,0.00,,CLR,0.00,661.00,VWS V14.01,2013-04-20 14:38:00,
2013-04-20 09:44:00,36.9,28.4,30.44,NW,305,3.0,4.0,71,0.00,,CLR,0.00,691.00,VWS V14.01,2013-04-20 14:44:00,
2013-04-20 09:49:00,37.3,28.8,30.45,NW,311,3.0,3.0,71,0.00,,CLR,0.00,714.00,VWS V14.01,2013-04-20 14:49:00,
2013-04-20 09:54:00,37.6,29.1,30.45,NW,305,7.0,8.0,71,0.00,,CLR,0.00,786.00,VWS V14.01,2013-04-20 14:54:00,
2013-04-20 09:59:00,37.6,28.0,30.46,NW,305,1.0,3.0,68,0.00,,CLR,0.00,761.00,VWS V14.01,2013-04-20 14:59:00,
2013-04-20 10:04:00,37.9,28.6,30.45,North,9,5.0,5.0,69,0.00,,CLR,0.00,823.00,VWS V14.01,2013-04-20 15:04:00,
2013-04-20 10:09:00,38.3,28.7,30.45,West,269,6.0,8.0,68,0.00,,CLR,0.00,847.00,VWS V14.01,2013-04-20 15:09:00,
2013-04-20 10:14:00,38.3,28.0,30.45,NW,313,2.0,6.0,66,0.00,,CLR,0.00,835.00,VWS V14.01,2013-04-20 15:14:00,
2013-04-20 10:19:00,38.0,27.3,30.45,NW,311,4.0,7.0,65,0.00,,CLR,0.00,425.00,VWS V14.01,2013-04-20 15:19:00,
2013-04-20 10:24:00,38.0,26.9,30.45,NW,304,3.0,6.0,64,0.00,,CLR,0.00,425.00,VWS V14.01,2013-04-20 15:24:00,
2013-04-20 10:29:00,38.5,27.4,30.46,NW,308,2.0,4.0,64,0.00,,CLR,0.00,854.00,VWS V14.01,2013-04-20 15:29:00,
2013-04-20 10:34:00,38.8,26.5,30.46,NNW,328,3.0,6.0,61,0.00,,CLR,0.00,896.00,VWS V14.01,2013-04-20 15:34:00,
2013-04-20 10:39:00,39.1,26.4,30.46,WNW,292,4.0,6.0,60,0.00,,CLR,0.00,904.00,VWS V14.01,2013-04-20 15:39:00,
2013-04-20 10:45:00,39.2,25.7,30.46,NNE,30,3.0,7.0,58,0.00,,CLR,0.00,888.00,VWS V14.01,2013-04-20 15:45:00,
2013-04-20 10:50:00,39.3,24.9,30.46,North,351,5.0,5.0,56,0.00,,CLR,0.00,939.00,VWS V14.01,2013-04-20 15:50:00,
2013-04-20 10:55:00,39.6,25.2,30.47,NNW,346,2.0,4.0,56,0.00,,CLR,0.00,951.00,VWS V14.01,2013-04-20 15:55:00,
2013-04-20 11:01:00,40.3,25.4,30.47,West,265,5.0,5.0,55,0.00,,CLR,0.00,237.00,VWS V14.01,2013-04-20 16:01:00,
2013-04-20 11:06:00,40.6,25.3,30.47,NW,309,6.0,9.0,54,0.00,,CLR,0.00,953.00,VWS V14.01,2013-04-20 16:06:00,
2013-04-20 11:11:00,40.3,22.7,30.47,WNW,298,2.0,3.0,49,0.00,,CLR,0.00,1032.00,VWS V14.01,2013-04-20 16:11:00,
2013-04-20 11:16:00,40.6,23.9,30.47,NW,304,5.0,7.0,51,0.00,,CLR,0.00,399.00,VWS V14.01,2013-04-20 16:16:00,
2013-04-20 11:22:00,40.8,24.1,30.47,NW,320,5.0,7.0,51,0.00,,CLR,0.00,283.00,VWS V14.01,2013-04-20 16:22:00,
2013-04-20 11:27:00,40.3,23.6,30.47,WNW,284,4.0,4.0,51,0.00,,CLR,0.00,297.00,VWS V14.01,2013-04-20 16:27:00,
2013-04-20 11:32:00,40.2,23.5,30.47,South,191,1.0,6.0,51,0.00,,CLR,0.00,1148.00,VWS V14.01,2013-04-20 16:32:00,
2013-04-20 11:37:00,40.5,23.8,30.47,WNW,301,6.0,7.0,51,0.00,,CLR,0.00,1190.00,VWS V14.01,2013-04-20 16:37:00,
2013-04-20 11:42:00,40.6,24.4,30.47,West,279,5.0,5.0,52,0.00,,CLR,0.00,281.00,VWS V14.01,2013-04-20 16:42:00,
2013-04-20 11:47:00,40.9,23.7,30.47,North,9,1.0,5.0,50,0.00,,CLR,0.00,998.00,VWS V14.01,2013-04-20 16:47:00,
2013-04-20 11:52:00,41.5,24.7,30.47,West,281,5.0,7.0,51,0.00,,CLR,0.00,1053.00,VWS V14.01,2013-04-20 16:52:00,
2013-04-20 11:57:00,41.8,23.6,30.47,WNW,292,0.0,1.0,48,0.00,,CLR,0.00,332.00,VWS V14.01,2013-04-20 16:57:00,
2013-04-20 12:02:00,42.1,24.3,30.47,WNW,292,3.0,6.0,49,0.00,,CLR,0.00,329.00,VWS V14.01,2013-04-20 17:02:00,
2013-04-20 12:07:00,41.8,23.6,30.47,NW,308,3.0,4.0,48,0.00,,CLR,0.00,316.00,VWS V14.01,2013-04-20 17:07:00,
2013-04-20 12:12:00,41.2,22.0,30.48,SW,236,4.0,4.0,46,0.00,,CLR,0.00,369.00,VWS V14.01,2013-04-20 17:12:00,
2013-04-20 12:17:00,41.5,22.8,30.48,SW,234,3.0,6.0,47,0.00,,CLR,0.00,1118.00,VWS V14.01,2013-04-20 17:17:00,
2013-04-20 12:22:00,41.5,22.3,30.48,WNW,301,2.0,5.0,46,0.00,,CLR,0.00,325.00,VWS V14.01,2013-04-20 17:22:00,
2013-04-20 12:27:00,41.5,22.8,30.48,WNW,302,1.0,5.0,47,0.00,,CLR,0.00,1162.00,VWS V14.01,2013-04-20 17:27:00,
2013-04-20 12:32:00,41.9,21.6,30.48,SW,215,3.0,4.0,44,0.00,,CLR,0.00,1164.00,VWS V14.01,2013-04-20 17:32:00,
2013-04-20 12:37:00,42.1,22.8,30.48,SW,229,2.0,8.0,46,0.00,,CLR,0.00,1092.00,VWS V14.01,2013-04-20 17:37:00,
2013-04-20 12:42:00,42.5,21.6,30.48,SSE,147,2.0,5.0,43,0.00,,CLR,0.00,1048.00,VWS V14.01,2013-04-20 17:42:00,
2013-04-20 12:48:00,42.3,21.4,30.48,West,263,0.0,3.0,43,0.00,,CLR,0.00,1041.00,VWS V14.01,2013-04-20 17:48:00,
2013-04-20 12:53:00,42.5,21.0,30.48,WNW,298,5.0,7.0,42,0.00,,CLR,0.00,1090.00,VWS V14.01,2013-04-20 17:53:00,
2013-04-20 12:58:00,42.6,22.2,30.48,NW,324,3.0,3.0,44,0.00,,CLR,0.00,1123.00,VWS V14.01,2013-04-20 17:58:00,
2013-04-20 13:03:00,42.9,22.0,30.48,SSW,201,2.0,7.0,43,0.00,,BKN028,0.00,476.00,VWS V14.01,2013-04-20 18:03:00,
2013-04-20 13:08:00,43.2,21.7,30.48,West,276,5.0,5.0,42,0.00,,BKN028,0.00,1225.00,VWS V14.01,2013-04-20 18:08:00,
2013-04-20 13:13:00,43.5,24.1,30.48,South,175,8.0,8.0,46,0.00,,BKN028,0.00,1208.00,VWS V14.01,2013-04-20 18:13:00,
2013-04-20 13:18:00,43.3,21.2,30.48,South,180,2.0,4.0,41,0.00,,BKN028,0.00,1201.00,VWS V14.01,2013-04-20 18:18:00,
2013-04-20 13:23:00,43.6,23.1,30.48,NW,309,5.0,7.0,44,0.00,,BKN028,0.00,367.00,VWS V14.01,2013-04-20 18:23:00,
2013-04-20 13:29:00,43.8,22.8,30.48,West,269,5.0,7.0,43,0.00,,BKN028,0.00,1234.00,VWS V14.01,2013-04-20 18:29:00,
2013-04-20 13:34:00,43.5,22.5,30.48,South,176,2.0,6.0,43,0.00,,BKN028,0.00,1280.00,VWS V14.01,2013-04-20 18:34:00,
2013-04-20 13:40:00,44.1,24.1,30.48,West,260,1.0,5.0,45,0.00,,BKN028,0.00,1325.00,VWS V14.01,2013-04-20 18:40:00,
2013-04-20 13:45:00,43.9,22.9,30.48,South,171,5.0,7.0,43,0.00,,BKN028,0.00,591.00,VWS V14.01,2013-04-20 18:45:00,
2013-04-20 13:50:00,43.2,22.2,30.48,SSE,155,5.0,9.0,43,0.00,,BKN028,0.00,591.00,VWS V14.01,2013-04-20 18:50:00,
2013-04-20 13:55:00,43.6,23.1,30.48,SSW,208,2.0,7.0,44,0.00,,BKN028,0.00,325.00,VWS V14.01,2013-04-20 18:55:00,
2013-04-20 14:01:00,43.9,22.9,30.48,West,274,1.0,6.0,43,0.00,,BKN047,0.00,1218.00,VWS V14.01,2013-04-20 19:01:00,
2013-04-20 14:06:00,44.5,22.9,30.48,South,180,0.0,3.0,42,0.00,,BKN047,0.00,1178.00,VWS V14.01,2013-04-20 19:06:00,
2013-04-20 14:11:00,44.6,22.4,30.48,SSE,166,5.0,6.0,41,0.00,,BKN047,0.00,1048.00,VWS V14.01,2013-04-20 19:11:00,
2013-04-20 14:16:00,44.1,21.9,30.48,ESE,121,5.0,6.0,41,0.00,,BKN047,0.00,265.00,VWS V14.01,2013-04-20 19:16:00,
2013-04-20 14:21:00,43.9,23.4,30.48,West,267,5.0,6.0,44,0.00,,BKN047,0.00,309.00,VWS V14.01,2013-04-20 19:21:00,
2013-04-20 14:26:00,44.2,23.1,30.48,West,270,2.0,6.0,43,0.00,,BKN047,0.00,1113.00,VWS V14.01,2013-04-20 19:26:00,
2013-04-20 14:31:00,44.5,23.4,30.48,West,269,6.0,7.0,43,0.00,,BKN047,0.00,1107.00,VWS V14.01,2013-04-20 19:31:00,
2013-04-20 14:37:00,44.8,23.7,30.48,West,270,2.0,4.0,43,0.00,,BKN047,0.00,1056.00,VWS V14.01,2013-04-20 19:37:00,
2013-04-20 14:42:00,44.8,23.7,30.48,NNW,331,2.0,5.0,43,0.00,,BKN047,0.00,394.00,VWS V14.01,2013-04-20 19:42:00,
2013-04-20 14:47:00,44.6,24.0,30.48,NW,313,2.0,4.0,44,0.00,,BKN047,0.00,1044.00,VWS V14.01,2013-04-20 19:47:00,
2013-04-20 14:52:00,45.1,24.0,30.48,North,10,4.0,6.0,43,0.00,,BKN047,0.00,1032.00,VWS V14.01,2013-04-20 19:52:00,
2013-04-20 14:57:00,44.6,23.5,30.48,WNW,301,3.0,4.0,43,0.00,,BKN047,0.00,285.00,VWS V14.01,2013-04-20 19:57:00,
2013-04-20 15:02:00,44.3,24.3,30.48,NW,317,3.0,4.0,45,0.00,,BKN047,0.00,258.00,VWS V14.01,2013-04-20 20:02:00,
2013-04-20 15:07:00,44.2,23.7,30.48,NW,317,0.0,3.0,44,0.00,,BKN047,0.00,211.00,VWS V14.01,2013-04-20 20:07:00,
2013-04-20 15:13:00,44.5,24.5,30.48,NW,316,0.0,3.0,45,0.00,,BKN047,0.00,1049.00,VWS V14.01,2013-04-20 20:13:00,
2013-04-20 15:18:00,45.1,24.0,30.48,NW,321,3.0,7.0,43,0.00,,BKN047,0.00,311.00,VWS V14.01,2013-04-20 20:18:00,
2013-04-20 15:23:00,45.4,23.7,30.48,NW,321,3.0,3.0,42,0.00,,BKN047,0.00,879.00,VWS V14.01,2013-04-20 20:23:00,
2013-04-20 15:28:00,45.1,24.0,30.48,NW,309,3.0,4.0,43,0.00,,BKN047,0.00,227.00,VWS V14.01,2013-04-20 20:28:00,
2013-04-20 15:34:00,44.8,23.7,30.48,NE,34,3.0,5.0,43,0.00,,BKN047,0.00,162.00,VWS V14.01,2013-04-20 20:34:00,
2013-04-20 15:39:00,44.6,23.5,30.47,NNE,20,5.0,9.0,43,0.00,,BKN047,0.00,858.00,VWS V14.01,2013-04-20 20:39:00,
2013-04-20 15:44:00,44.5,22.9,30.47,NNE,20,4.0,6.0,42,0.00,,BKN047,0.00,192.00,VWS V14.01,2013-04-20 20:44:00,
2013-04-20 15:49:00,44.2,23.1,30.47,North,9,4.0,4.0,43,0.00,,BKN047,0.00,199.00,VWS V14.01,2013-04-20 20:49:00,
2013-04-20 15:54:00,45.1,25.0,30.47,NNE,15,2.0,6.0,45,0.00,,BKN047,0.00,824.00,VWS V14.01,2013-04-20 20:54:00,
2013-04-20 15:59:00,45.7,23.4,30.47,NNE,15,0.0,1.0,41,0.00,,BKN047,0.00,156.00,VWS V14.01,2013-04-20 20:59:00,
2013-04-20 16:04:00,45.8,24.0,30.48,NNE,22,3.0,5.0,42,0.00,,OVC,0.00,805.00,VWS V14.01,2013-04-20 21:04:00,
2013-04-20 16:09:00,46.0,24.8,30.47,NNE,22,4.0,5.0,43,0.00,,OVC,0.00,733.00,VWS V14.01,2013-04-20 21:09:00,
2013-04-20 16:14:00,45.8,24.0,30.47,North,11,3.0,4.0,42,0.00,,OVC,0.00,195.00,VWS V14.01,2013-04-20 21:14:00,
2013-04-20 16:19:00,45.5,23.2,30.47,North,11,1.0,1.0,41,0.00,,OVC,0.00,163.00,VWS V14.01,2013-04-20 21:19:00,
2013-04-20 16:24:00,45.5,23.8,30.47,North,11,0.0,2.0,42,0.00,,OVC,0.00,561.00,VWS V14.01,2013-04-20 21:24:00,
2013-04-20 16:29:00,45.5,22.6,30.48,North,11,0.0,0.0,40,0.00,,OVC,0.00,211.00,VWS V14.01,2013-04-20 21:29:00,
2013-04-20 16:34:00,45.2,22.9,30.48,North,11,4.0,4.0,41,0.00,,OVC,0.00,199.00,VWS V14.01,2013-04-20 21:34:00,
2013-04-20 16:39:00,44.9,23.8,30.48,North,11,0.0,0.0,43,0.00,,OVC,0.00,167.00,VWS V14.01,2013-04-20 21:39:00,
2013-04-20 16:44:00,45.1,22.8,30.48,North,11,0.0,0.0,41,0.00,,OVC,0.00,186.00,VWS V14.01,2013-04-20 21:44:00,
2013-04-20 16:49:00,45.2,22.3,30.48,North,11,0.0,0.0,40,0.00,,OVC,0.00,199.00,VWS V14.01,2013-04-20 21:49:00,
2013-04-20 16:54:00,45.5,22.0,30.48,North,11,0.0,0.0,39,0.00,,OVC,0.00,174.00,VWS V14.01,2013-04-20 21:54:00,
2013-04-20 16:59:00,45.8,22.3,30.48,North,11,0.0,2.0,39,0.00,,OVC,0.00,149.00,VWS V14.01,2013-04-20 21:59:00,
2013-04-20 17:04:00,45.8,22.9,30.48,North,11,0.0,2.0,40,0.00,,OVC,0.00,144.00,VWS V14.01,2013-04-20 22:04:00,
2013-04-20 17:09:00,45.5,23.8,30.48,NE,38,5.0,6.0,42,0.00,,OVC,0.00,155.00,VWS V14.01,2013-04-20 22:09:00,
2013-04-20 17:14:00,45.4,25.3,30.48,North,349,0.0,3.0,45,0.00,,OVC,0.00,554.00,VWS V14.01,2013-04-20 22:14:00,
2013-04-20 17:19:00,45.8,24.6,30.48,North,350,4.0,4.0,43,0.00,,OVC,0.00,127.00,VWS V14.01,2013-04-20 22:19:00,
2013-04-20 17:24:00,45.8,24.0,30.48,NNE,32,6.0,8.0,42,0.00,,OVC,0.00,113.00,VWS V14.01,2013-04-20 22:24:00,
2013-04-20 17:29:00,45.2,24.0,30.48,NNE,30,4.0,6.0,43,0.00,,OVC,0.00,113.00,VWS V14.01,2013-04-20 22:29:00,
2013-04-20 17:35:00,45.1,24.0,30.48,NNE,33,2.0,5.0,43,0.00,,OVC,0.00,100.00,VWS V14.01,2013-04-20 22:35:00,
2013-04-20 17:40:00,45.1,24.0,30.48,NNE,33,1.0,2.0,43,0.00,,OVC,0.00,360.00,VWS V14.01,2013-04-20 22:40:00,
2013-04-20 17:45:00,45.4,24.2,30.48,NE,34,5.0,6.0,43,0.00,,OVC,0.00,327.00,VWS V14.01,2013-04-20 22:45:00,
2013-04-20 17:50:00,45.5,23.2,30.48,NE,34,2.0,4.0,41,0.00,,OVC,0.00,248.00,VWS V14.01,2013-04-20 22:50:00,
2013-04-20 17:55:00,45.5,23.2,30.48,NE,34,2.0,3.0,41,0.00,,OVC,0.00,104.00,VWS V14.01,2013-04-20 22:55:00,
2013-04-20 18:01:00,45.7,22.8,30.48,NE,34,0.0,0.0,40,0.00,,BKN050,0.00,294.00,VWS V14.01,2013-04-20 23:01:00,
2013-04-20 18:06:00,46.4,22.8,30.47,NE,34,0.0,0.0,39,0.00,,BKN050,0.00,278.00,VWS V14.01,2013-04-20 23:06:00,
2013-04-20 18:12:00,46.7,23.1,30.48,NNE,26,0.0,2.0,39,0.00,,BKN050,0.00,244.00,VWS V14.01,2013-04-20 23:12:00,
2013-04-20 18:17:00,46.7,23.1,30.48,NNE,26,1.0,3.0,39,0.00,,BKN050,0.00,69.00,VWS V14.01,2013-04-20 23:17:00,
2013-04-20 18:22:00,46.2,23.2,30.48,NNE,26,0.0,2.0,40,0.00,,BKN050,0.00,63.00,VWS V14.01,2013-04-20 23:22:00,
2013-04-20 18:27:00,46.0,22.5,30.48,NNE,26,0.0,0.0,39,0.00,,BKN050,0.00,62.00,VWS V14.01,2013-04-20 23:27:00,
2013-04-20 18:33:00,45.7,23.9,30.48,NNE,26,3.0,4.0,42,0.00,,BKN050,0.00,62.00,VWS V14.01,2013-04-20 23:33:00,
2013-04-20 18:38:00,45.5,22.6,30.48,NNE,26,0.0,2.0,40,0.00,,BKN050,0.00,62.00,VWS V14.01,2013-04-20 23:38:00,
2013-04-20 18:43:00,45.4,23.7,30.48,North,360,4.0,7.0,42,0.00,,BKN050,0.00,62.00,VWS V14.01,2013-04-20 23:43:00,
2013-04-20 18:48:00,45.2,24.6,30.48,NNE,12,3.0,3.0,44,0.00,,BKN050,0.00,62.00,VWS V14.01,2013-04-20 23:48:00,
2013-04-20 18:53:00,45.1,24.5,30.48,NNE,30,7.0,7.0,44,0.00,,BKN050,0.00,54.00,VWS V14.01,2013-04-20 23:53:00,
2013-04-20 18:59:00,44.8,25.3,30.49,NE,49,3.0,3.0,46,0.00,,BKN050,0.00,44.00,VWS V14.01,2013-04-20 23:59:00,
2013-04-20 19:04:00,44.6,25.6,30.49,NE,49,3.0,4.0,47,0.00,,BKN050,0.00,39.00,VWS V14.01,2013-04-21 00:04:00,
2013-04-20 19:09:00,44.6,25.1,30.49,NE,48,2.0,5.0,46,0.00,,BKN050,0.00,33.00,VWS V14.01,2013-04-21 00:09:00,
2013-04-20 19:15:00,44.5,25.5,30.49,NE,48,3.0,4.0,47,0.00,,BKN050,0.00,28.00,VWS V14.01,2013-04-21 00:15:00,
2013-04-20 19:20:00,44.5,25.5,30.49,NE,49,0.0,3.0,47,0.00,,BKN050,0.00,23.00,VWS V14.01,2013-04-21 00:20:00,
2013-04-20 19:26:00,44.3,25.4,30.50,ENE,64,2.0,3.0,47,0.00,,BKN050,0.00,19.00,VWS V14.01,2013-04-21 00:26:00,
2013-04-20 19:31:00,44.2,25.3,30.50,ENE,69,2.0,4.0,47,0.00,,BKN050,0.00,14.00,VWS V14.01,2013-04-21 00:31:00,
2013-04-20 19:37:00,44.2,25.3,30.50,ENE,71,1.0,4.0,47,0.00,,BKN050,0.00,7.00,VWS V14.01,2013-04-21 00:37:00,
2013-04-20 19:42:00,44.1,25.7,30.51,ENE,75,1.0,3.0,48,0.00,,BKN050,0.00,0.00,VWS V14.01,2013-04-21 00:42:00,
2013-04-20 19:47:00,43.9,25.5,30.51,ENE,77,2.0,3.0,48,0.00,,BKN050,0.00,0.00,VWS V14.01,2013-04-21 00:47:00,
2013-04-20 19:52:00,43.8,25.4,30.51,ENE,78,2.0,4.0,48,0.00,,BKN050,0.00,0.00,VWS V14.01,2013-04-21 00:52:00,
2013-04-20 19:57:00,43.6,25.7,30.51,ENE,78,1.0,2.0,49,0.00,,BKN050,0.00,0.00,VWS V14.01,2013-04-21 00:57:00,
2013-04-20 20:02:00,43.5,26.1,30.52,ENE,78,2.0,3.0,50,0.00,,FEW050,0.00,0.00,VWS V14.01,2013-04-21 01:02:00,
2013-04-20 20:07:00,43.2,25.8,30.52,ENE,78,2.0,3.0,50,0.00,,FEW050,0.00,0.00,VWS V14.01,2013-04-21 01:07:00,
2013-04-20 20:12:00,43.1,26.2,30.52,ENE,78,2.0,3.0,51,0.00,,FEW050,0.00,0.00,VWS V14.01,2013-04-21 01:12:00,
2013-04-20 20:18:00,42.9,27.0,30.52,ENE,78,1.0,2.0,53,0.00,,FEW050,0.00,0.00,VWS V14.01,2013-04-21 01:18:00,
2013-04-20 20:23:00,42.6,26.7,30.52,ENE,78,2.0,3.0,53,0.00,,FEW050,0.00,0.00,VWS V14.01,2013-04-21 01:23:00,
2013-04-20 20:28:00,42.5,26.6,30.53,ENE,78,0.0,1.0,53,0.00,,FEW050,0.00,0.00,VWS V14.01,2013-04-21 01:28:00,
2013-04-20 20:33:00,42.3,26.9,30.53,ENE,78,0.0,1.0,54,0.00,,FEW050,0.00,0.00,VWS V14.01,2013-04-21 01:33:00,
2013-04-20 20:38:00,42.2,26.8,30.54,ENE,78,0.0,2.0,54,0.00,,FEW050,0.00,0.00,VWS V14.01,2013-04-21 01:38:00,
2013-04-20 20:43:00,42.1,27.5,30.54,ENE,78,2.0,4.0,56,0.00,,FEW050,0.00,0.00,VWS V14.01,2013-04-21 01:43:00,
2013-04-20 20:48:00,41.8,27.7,30.55,ENE,77,0.0,1.0,57,0.00,,FEW050,0.00,0.00,VWS V14.01,2013-04-21 01:48:00,
2013-04-20 20:53:00,41.6,27.9,30.55,East,80,1.0,2.0,58,0.00,,FEW050,0.00,0.00,VWS V14.01,2013-04-21 01:53:00,
2013-04-20 20:59:00,41.6,27.9,30.55,East,80,2.0,3.0,58,0.00,,FEW050,0.00,0.00,VWS V14.01,2013-04-21 01:59:00,
2013-04-20 21:04:00,41.5,28.3,30.55,East,80,0.0,0.0,59,0.00,,FEW050,0.00,0.00,VWS V14.01,2013-04-21 02:04:00,
2013-04-20 21:09:00,41.3,28.1,30.55,East,79,2.0,3.0,59,0.00,,FEW050,0.00,0.00,VWS V14.01,2013-04-21 02:09:00,
2013-04-20 21:14:00,41.2,28.0,30.55,East,81,3.0,3.0,59,0.00,,FEW050,0.00,0.00,VWS V14.01,2013-04-21 02:14:00,
2013-04-20 21:19:00,41.2,28.4,30.56,East,81,1.0,3.0,60,0.00,,FEW050,0.00,0.00,VWS V14.01,2013-04-21 02:19:00,
2013-04-20 21:24:00,41.1,28.3,30.56,East,81,1.0,2.0,60,0.00,,FEW050,0.00,0.00,VWS V14.01,2013-04-21 02:24:00,
2013-04-20 21:29:00,40.9,28.5,30.56,East,81,1.0,2.0,61,0.00,,FEW050,0.00,0.00,VWS V14.01,2013-04-21 02:29:00,
2013-04-20 21:35:00,40.6,28.2,30.56,East,81,0.0,1.0,61,0.00,,FEW050,0.00,0.00,VWS V14.01,2013-04-21 02:35:00,
2013-04-20 21:40:00,40.6,28.2,30.56,East,81,1.0,2.0,61,0.00,,FEW050,0.00,0.00,VWS V14.01,2013-04-21 02:40:00,
2013-04-20 21:46:00,40.5,27.7,30.56,East,81,2.0,2.0,60,0.00,,FEW050,0.00,0.00,VWS V14.01,2013-04-21 02:46:00,
2013-04-20 21:52:00,40.5,27.7,30.56,East,80,0.0,1.0,60,0.00,,FEW050,0.00,0.00,VWS V14.01,2013-04-21 02:52:00,
2013-04-20 21:57:00,40.5,27.7,30.57,East,81,0.0,3.0,60,0.00,,FEW050,0.00,0.00,VWS V14.01,2013-04-21 02:57:00,
2013-04-20 22:02:00,40.5,27.7,30.57,East,82,3.0,3.0,60,0.00,,FEW050,0.00,0.00,VWS V14.01,2013-04-21 03:02:00,
2013-04-20 22:08:00,40.5,27.3,30.57,East,82,2.0,2.0,59,0.00,,FEW050,0.00,0.00,VWS V14.01,2013-04-21 03:08:00,
2013-04-20 22:13:00,40.5,27.3,30.57,East,82,1.0,2.0,59,0.00,,FEW050,0.00,0.00,VWS V14.01,2013-04-21 03:13:00,
2013-04-20 22:19:00,40.3,27.1,30.57,ENE,75,1.0,5.0,59,0.00,,FEW050,0.00,0.00,VWS V14.01,2013-04-21 03:19:00,
2013-04-20 22:24:00,40.3,27.1,30.57,ENE,76,1.0,4.0,59,0.00,,FEW050,0.00,0.00,VWS V14.01,2013-04-21 03:24:00,
2013-04-20 22:30:00,40.2,27.4,30.57,ENE,76,1.0,1.0,60,0.00,,FEW050,0.00,0.00,VWS V14.01,2013-04-21 03:30:00,
2013-04-20 22:35:00,40.1,27.4,30.57,East,80,0.0,0.0,60,0.00,,FEW050,0.00,0.00,VWS V14.01,2013-04-21 03:35:00,
2013-04-20 22:40:00,39.9,27.2,30.57,East,80,2.0,3.0,60,0.00,,FEW050,0.00,0.00,VWS V14.01,2013-04-21 03:40:00,
2013-04-20 22:45:00,39.9,27.2,30.57,East,81,0.0,3.0,60,0.00,,FEW050,0.00,0.00,VWS V14.01,2013-04-21 03:45:00,
2013-04-20 22:50:00,39.9,27.6,30.57,East,82,2.0,3.0,61,0.00,,FEW050,0.00,0.00,VWS V14.01,2013-04-21 03:50:00,
2013-04-20 22:56:00,39.9,27.6,30.57,East,82,1.0,3.0,61,0.00,,FEW050,0.00,0.00,VWS V14.01,2013-04-21 03:56:00,
2013-04-20 23:01:00,39.9,27.6,30.57,East,83,2.0,3.0,61,0.00,,CLR,0.00,0.00,VWS V14.01,2013-04-21 04:01:00,
2013-04-20 23:02:00,39.9,27.6,30.57,East,83,0.0,2.0,61,0.00,,CLR,0.00,0.00,VWS V14.01,2013-04-21 04:02:00,
2013-04-20 23:03:00,39.8,27.5,30.57,East,83,2.0,2.0,61,0.00,,CLR,0.00,0.00,VWS V14.01,2013-04-21 04:03:00,
2013-04-20 23:05:00,39.8,27.9,30.57,East,83,0.0,0.0,62,0.00,,CLR,0.00,0.00,VWS V14.01,2013-04-21 04:05:00,
2013-04-20 23:10:00,39.6,27.7,30.56,East,84,0.0,1.0,62,0.00,,CLR,0.00,0.00,VWS V14.01,2013-04-21 04:10:00,
2013-04-20 23:11:00,39.6,27.7,30.57,East,83,0.0,0.0,62,0.00,,CLR,0.00,0.00,VWS V14.01,2013-04-21 04:11:00,
2013-04-20 23:17:00,39.5,27.6,30.57,East,84,2.0,3.0,62,0.00,,CLR,0.00,0.00,VWS V14.01,2013-04-21 04:17:00,
2013-04-20 23:23:00,39.5,27.6,30.57,East,84,2.0,4.0,62,0.00,,CLR,0.00,0.00,VWS V14.01,2013-04-21 04:23:00,
2013-04-20 23:28:00,39.5,27.6,30.57,East,90,6.0,6.0,62,0.00,,CLR,0.00,0.00,VWS V14.01,2013-04-21 04:28:00,
2013-04-20 23:33:00,39.3,27.8,30.57,East,92,2.0,5.0,63,0.00,,CLR,0.00,0.00,VWS V14.01,2013-04-21 04:33:00,
2013-04-20 23:38:00,39.3,27.8,30.57,ESE,105,6.0,6.0,63,0.00,,CLR,0.00,0.00,VWS V14.01,2013-04-21 04:38:00,
2013-04-20 23:43:00,39.2,28.1,30.57,ESE,105,4.0,5.0,64,0.00,,CLR,0.00,0.00,VWS V14.01,2013-04-21 04:43:00,
2013-04-20 23:48:00,39.1,28.0,30.56,ESE,105,0.0,4.0,64,0.00,,CLR,0.00,0.00,VWS V14.01,2013-04-21 04:48:00,
2013-04-20 23:53:00,38.9,28.1,30.56,ESE,105,2.0,2.0,65,0.00,,CLR,0.00,0.00,VWS V14.01,2013-04-21 04:53:00,
2013-04-20 23:59:00,38.8,28.1,30.56,ESE,105,2.0,4.0,65,0.00,,CLR,0.00,0.00,VWS V14.01,2013-04-21 04:59:00,